{"data":{"norad_id":58518,"epoch":"2026-05-25T00:38:58.213824Z","epoch_age_seconds":73488,"freshness":"FRESH","line1":"1 58518U 23191L   26145.02706266  .00002218  00000+0  90088-4 0  9991","line2":"2 58518  43.0021  32.5127 0001563 266.5534  93.5139 15.27587961137142","mean_motion":15.27587961,"eccentricity":0.0001563,"inclination_deg":43.0021,"raan_deg":32.5127,"arg_perigee_deg":266.5534,"mean_anomaly_deg":93.5139,"bstar":9.0088e-5,"rev_number":13714,"period_min":94.266257444012,"perigee_km":481.95285838429,"apogee_km":484.09765770616,"semimajor_km":6861.1622580452,"source":"CELESTRAK","updated_at":"2026-05-25T13:38:18.657303Z"}}